User: anonymous   Login
Location: Unspecified
(0.0000°N, 0.0000°E)
Time: 02:09:55
(UTC+00:00)
Language:

STARLINK-30712 - Orbit

View from above orbital plane
View from above orbital plane
View from above satellite
View from above satellite

Ground track
Ground track

The orbit is defined by the following mean orbital elements,

1 57935U          26145.40596227 +.00000000 +00000-0 +47137-4 0 00001
2 57935  53.1620  27.5564 0001140  80.9018 279.2114 15.34396768    07
Epoch (UTC): 25 May 2026 09:44:35
Eccentricity: 0.0001140
inclination: 53.1620°
perigee height: 462 km
apogee height: 463 km
right ascension of ascending node: 27.5564°
argument of perigee: 80.9018°
revolutions per day: 15.34396768
mean anomaly at epoch: 279.2114°

The dashed part of the orbit path shows where the satellite is in the earth's shadow,  

DLR